Regional Weather Roundup
Issued by NWS Green Bay, WI

Home | Current Version | Previous Version | Graphics & Text | Print | Product List | Glossary Off
Versions: 1 2 3 4 5 6 7 8 9 10 11 12 13 14 15 16 17 18 19 20 21 22 23 24 25 26 27 28 29 30 31 32 33 34 35 36 37 38 39 40 41 42 43 44 45 46 47 48 49 50

000
ASUS43 KGRB 201459
RWRGRB

NORTH-CENTRAL AND NORTHEAST WISCONSIN REGIONAL WEATHER ROUNDUP
NATIONAL WEATHER SERVICE GREEN BAY WI
900 AM CST SAT DEC 20 2014

WIZ005-009-010>012-018-019-201600-
NORTH CENTRAL WISCONSIN

CITY           SKY/WX    TMP DP  RH WIND       PRES   REMARKS
IRONWOOD       CLOUDY    25  25 100 S6        30.15S
MANITOWISH WTR NOT AVBL
ARBOR VITAE    NOT AVBL
EAGLE RIVER    NOT AVBL
LAND O LAKES   NOT AVBL
RHINELANDER    CLOUDY    23  21  92 CALM      30.19R FOG
PHILLIPS       NOT AVBL
ANTIGO         NOT AVBL
TOMAHAWK       NOT AVBL
MERRILL        NOT AVBL
$$

WIZ013-073-201600-
NORTHEAST WISCONSIN

CITY           SKY/WX    TMP DP  RH WIND       PRES   REMARKS
IRON MOUNTAIN  CLOUDY    19  17  92 CALM      30.21S
MARINETTE      CLOUDY    18  16  93 CALM      30.27R
$$

WIZ017-030-035>037-045-201600-
CENTRAL WISCONSIN

CITY           SKY/WX    TMP DP  RH WIND       PRES   REMARKS
MEDFORD        NOT AVBL
WAUSAU         CLOUDY    25  23  92 SE3       30.20S FOG
MOSINEE        NOT AVBL
MARSHFIELD     CLOUDY    26  23  88 S6        30.20S FOG
WISC RAPIDS    CLOUDY    26  22  84 S3        30.24R
STEVENS POINT  NOT AVBL
WAUPACA        NOT AVBL
SHAWANO        NOT AVBL
CLINTONVILLE   NOT AVBL
$$

WIZ038-039-048-051-201600-
FOX VALLEY

CITY           SKY/WX    TMP DP  RH WIND       PRES   REMARKS
NWS GREEN BAY  CLOUDY    24  21  88 CALM      30.27S FOG
APPLETON       PTSUNNY   25  19  80 VRB3      30.26S
OSHKOSH        CLOUDY    26  20  77 CALM      30.26R HAZE
FOND DU LAC    CLOUDY    26  21  81 CALM      30.26S
$$

WIZ022-050-052-201600-
EAST CENTRAL WISCONSIN

CITY           SKY/WX    TMP DP  RH WIND       PRES   REMARKS
STURGEON BAY   CLOUDY    25  19  80 CALM      30.28S
MANITOWOC      NOT AVBL
SHEBOYGAN      PTSUNNY   28  20  71 NE3       30.26S
$$

LMZ563-521-522-541>543-201600-
LAKESHORE

STATION/POSITION TIME  TEMP    WIND        PRES    VSBY  WAVE
                       AIR SEA DIR/SP/G                  HT/PER
                 (UTC) (F)     (DEG/KT/KT) (MB)    (MI)  (FT/S)
SHEBOYGAN LKSHOR 1400   28 34  320/  4/  5 1026.1R
KEWAUNEE LKSHORE 1400   27     290/  3/  5 1024.0F
ALGOMA MARINA    1400          320/  6/  8   N/A
NORTHPORT PIER   1400   24     240/  3/  4 1025.1S
SISTER BAY LKSHO 1400             CALM       N/A
CHAMBERS ISLAND  1400   24     230/  3/  5 1025.1S
MENOMINEE LKSHOR 1400   22     270/  1/  1 1025.7R
$$


USA.gov is the U.S. government's official web portal to all federal, state and local government web resources and services.